TimeCDT,TemperatureF,Dew PointF,Humidity,Sea Level PressureIn,VisibilityMPH,Wind Direction,Wind SpeedMPH,Gust SpeedMPH,PrecipitationIn,Events,Conditions,WindDirDegrees,DateUTC
12:15 AM,51.8,44.6,76,30.00,10.0,Calm,Calm,-,N/A,,Clear,0,2012-10-04 05:15:00
12:35 AM,51.8,44.6,76,30.00,10.0,Calm,Calm,-,N/A,,Clear,0,2012-10-04 05:35:00
12:55 AM,51.8,44.6,76,30.00,10.0,Calm,Calm,-,N/A,,Clear,0,2012-10-04 05:55:00
1:15 AM,51.8,42.8,71,30.00,10.0,Calm,Calm,-,N/A,,Clear,0,2012-10-04 06:15:00
1:35 AM,50.0,42.8,76,30.00,10.0,Calm,Calm,-,N/A,,Clear,0,2012-10-04 06:35:00
1:55 AM,50.0,42.8,76,30.01,10.0,Calm,Calm,-,N/A,,Clear,0,2012-10-04 06:55:00
2:15 AM,48.2,42.8,82,30.01,10.0,Calm,Calm,-,N/A,,Clear,0,2012-10-04 07:15:00
2:35 AM,48.2,42.8,82,30.01,10.0,Calm,Calm,-,N/A,,Clear,0,2012-10-04 07:35:00
2:55 AM,48.2,42.8,82,30.00,10.0,Calm,Calm,-,N/A,,Clear,0,2012-10-04 07:55:00
3:15 AM,48.2,42.8,82,30.00,10.0,Calm,Calm,-,N/A,,Clear,0,2012-10-04 08:15:00
3:35 AM,48.2,42.8,82,30.00,10.0,Calm,Calm,-,N/A,,Clear,0,2012-10-04 08:35:00
3:55 AM,46.4,41.0,81,30.00,1.8,Calm,Calm,-,N/A,,Haze,0,2012-10-04 08:55:00
4:15 AM,46.4,41.0,81,30.00,1.5,Calm,Calm,-,N/A,,Haze,0,2012-10-04 09:15:00
4:35 AM,46.4,41.0,81,30.00,10.0,Calm,Calm,-,N/A,,Clear,0,2012-10-04 09:35:00
4:55 AM,46.4,41.0,81,30.00,7.0,Calm,Calm,-,N/A,,Clear,0,2012-10-04 09:55:00
5:15 AM,46.4,42.8,87,30.00,10.0,Calm,Calm,-,N/A,,Scattered Clouds,0,2012-10-04 10:15:00
5:35 AM,46.4,41.0,81,29.99,10.0,Calm,Calm,-,N/A,,Scattered Clouds,0,2012-10-04 10:35:00
5:55 AM,46.4,42.8,87,29.99,7.0,Calm,Calm,-,N/A,,Clear,0,2012-10-04 10:55:00
6:15 AM,48.2,42.8,82,29.99,5.0,Calm,Calm,-,N/A,,Haze,0,2012-10-04 11:15:00
6:35 AM,51.8,46.4,82,29.99,7.0,Calm,Calm,-,N/A,,Overcast,0,2012-10-04 11:35:00
6:55 AM,51.8,46.4,82,30.00,7.0,Calm,Calm,-,N/A,,Overcast,0,2012-10-04 11:55:00
7:15 AM,53.6,46.4,77,30.00,7.0,Calm,Calm,-,N/A,,Mostly Cloudy,0,2012-10-04 12:15:00
7:35 AM,53.6,46.4,77,30.01,7.0,Calm,Calm,-,N/A,,Scattered Clouds,0,2012-10-04 12:35:00
7:55 AM,55.4,48.2,77,30.01,7.0,Calm,Calm,-,N/A,,Scattered Clouds,0,2012-10-04 12:55:00
8:15 AM,62.6,51.8,68,30.01,10.0,SW,5.8,-,N/A,,Scattered Clouds,220,2012-10-04 13:15:00
8:35 AM,64.4,51.8,64,30.02,10.0,WSW,13.8,17.3,N/A,,Clear,250,2012-10-04 13:35:00
8:55 AM,64.4,50.0,59,30.02,10.0,WNW,11.5,20.7,N/A,,Clear,290,2012-10-04 13:55:00
9:15 AM,64.4,48.2,56,30.01,10.0,WSW,3.5,-,N/A,,Clear,250,2012-10-04 14:15:00
9:35 AM,64.4,48.2,56,30.04,10.0,West,18.4,-,N/A,,Clear,280,2012-10-04 14:35:00
9:55 AM,60.8,44.6,55,30.05,10.0,West,15.0,21.9,N/A,,Clear,280,2012-10-04 14:55:00
10:15 AM,60.8,42.8,52,30.04,10.0,West,4.6,-,N/A,,Clear,270,2012-10-04 15:15:00
10:35 AM,60.8,42.8,52,30.07,10.0,West,15.0,-,N/A,,Clear,270,2012-10-04 15:35:00
10:55 AM,60.8,41.0,48,30.07,10.0,WNW,17.3,21.9,N/A,,Clear,290,2012-10-04 15:55:00
11:15 AM,60.8,39.2,45,30.07,10.0,WNW,9.2,26.5,N/A,,Scattered Clouds,290,2012-10-04 16:15:00
11:35 AM,55.4,44.6,67,30.10,7.0,WNW,13.8,17.3,N/A,Rain,Light Rain,300,2012-10-04 16:35:00
11:55 AM,55.4,44.6,67,30.10,10.0,WNW,13.8,-,N/A,,Clear,300,2012-10-04 16:55:00
12:15 PM,55.4,42.8,63,30.09,10.0,NW,9.2,-,N/A,,Scattered Clouds,310,2012-10-04 17:15:00
12:35 PM,55.4,42.8,63,30.12,10.0,WNW,12.7,18.4,N/A,,Scattered Clouds,290,2012-10-04 17:35:00
12:55 PM,57.2,42.8,59,30.11,10.0,West,13.8,-,N/A,,Clear,280,2012-10-04 17:55:00
1:35 PM,57.2,41.0,55,30.14,10.0,West,15.0,-,N/A,,Scattered Clouds,270,2012-10-04 18:35:00
1:55 PM,55.4,42.8,63,30.14,10.0,West,10.4,-,N/A,Rain,Light Rain,260,2012-10-04 18:55:00
2:15 PM,55.4,42.8,63,30.13,10.0,West,11.5,-,N/A,,Scattered Clouds,280,2012-10-04 19:15:00
2:35 PM,53.6,44.6,72,30.12,10.0,West,11.5,18.4,N/A,Rain,Light Rain,280,2012-10-04 19:35:00
2:55 PM,53.6,46.4,77,30.14,10.0,WSW,9.2,-,0.01,,Scattered Clouds,250,2012-10-04 19:55:00
3:15 PM,53.6,44.6,72,30.14,10.0,WNW,13.8,18.4,N/A,Rain,Light Rain,290,2012-10-04 20:15:00
3:35 PM,53.6,42.8,67,30.12,10.0,WNW,8.1,19.6,N/A,Rain,Rain,290,2012-10-04 20:35:00
3:55 PM,51.8,42.8,71,30.13,10.0,WNW,9.2,-,0.01,Rain,Rain,300,2012-10-04 20:55:00
4:15 PM,51.8,42.8,71,30.15,10.0,WSW,8.1,-,N/A,,Overcast,240,2012-10-04 21:15:00
4:35 PM,51.8,44.6,76,30.16,10.0,SW,10.4,-,N/A,,Overcast,230,2012-10-04 21:35:00
4:55 PM,51.8,44.6,76,30.14,10.0,SW,4.6,-,N/A,,Overcast,230,2012-10-04 21:55:00
5:15 PM,51.8,44.6,76,30.15,10.0,SSW,8.1,-,N/A,,Overcast,210,2012-10-04 22:15:00
5:35 PM,51.8,44.6,76,30.16,10.0,SW,9.2,-,N/A,,Overcast,230,2012-10-04 22:35:00
5:55 PM,51.8,44.6,76,30.15,10.0,SW,9.2,-,N/A,,Overcast,230,2012-10-04 22:55:00
6:15 PM,51.8,44.6,76,30.15,10.0,SW,8.1,-,N/A,,Mostly Cloudy,230,2012-10-04 23:15:00
6:35 PM,50.0,44.6,82,30.15,10.0,SW,8.1,-,N/A,,Scattered Clouds,230,2012-10-04 23:35:00
6:55 PM,48.2,42.8,82,30.16,10.0,SW,5.8,-,N/A,,Clear,220,2012-10-04 23:55:00
7:15 PM,48.2,42.8,82,30.16,10.0,SW,4.6,-,N/A,,Clear,220,2012-10-05 00:15:00
7:35 PM,48.2,42.8,82,30.16,10.0,SW,5.8,-,N/A,,Clear,220,2012-10-05 00:35:00
7:55 PM,46.4,41.0,81,30.17,10.0,WSW,5.8,-,N/A,,Clear,240,2012-10-05 00:55:00
8:15 PM,46.4,41.0,81,30.17,10.0,WSW,8.1,-,N/A,,Clear,250,2012-10-05 01:15:00
8:35 PM,46.4,41.0,81,30.17,10.0,WSW,5.8,-,N/A,,Clear,250,2012-10-05 01:35:00
8:55 PM,44.6,39.2,81,30.18,10.0,West,6.9,-,N/A,,Clear,260,2012-10-05 01:55:00
9:15 PM,46.4,39.2,76,30.18,10.0,West,8.1,-,N/A,,Clear,260,2012-10-05 02:15:00
9:35 PM,46.4,39.2,76,30.19,10.0,West,6.9,-,N/A,,Clear,270,2012-10-05 02:35:00
9:55 PM,44.6,37.4,76,30.20,10.0,West,5.8,-,N/A,,Clear,270,2012-10-05 02:55:00
10:15 PM,44.6,37.4,76,30.19,10.0,West,5.8,-,N/A,,Clear,260,2012-10-05 03:15:00
10:35 PM,44.6,37.4,76,30.19,10.0,WNW,5.8,-,N/A,,Clear,290,2012-10-05 03:35:00
10:55 PM,42.8,37.4,81,30.19,10.0,West,5.8,-,N/A,,Clear,280,2012-10-05 03:55:00
11:15 PM,44.6,37.4,76,30.18,10.0,NW,6.9,-,N/A,,Clear,320,2012-10-05 04:15:00
11:35 PM,46.4,37.4,71,30.18,10.0,NW,6.9,-,N/A,,Clear,310,2012-10-05 04:35:00
11:55 PM,46.4,37.4,71,30.18,10.0,NW,6.9,-,N/A,,Clear,320,2012-10-05 04:55:00